星链-35005 (STARLINK-35005)

导读 | 豆包AI

STARLINK-35005是美国SpaceX星链星座中的一颗卫星,于2025年9月3日发射。星链计划旨在构建全球卫星互联网星座,为全球偏远地区、海洋等网络覆盖薄弱区域提供高速互联网接入服务,该卫星的入轨进一步扩充了星链星座的在轨规模,提升了星座整体服务能力。

基本信息
目录编号:
65456
目录名称:
STARLINK-35005
国际标识:
2025-194Y
轨道中心:
EARTH
卫星名称:
星链-35005
卫星全名:
星链-35005 (STARLINK-35005)
卫星状态:
在轨 (已飞行213 天)
发射日期:
2025-09-03 UTC
国别 :
美国 (US)
星等 :
--
轨道信息
数据来源 国际轨道数据 AOE轨道数据
星历时间 2026-04-03T21:19:10+0800
22小时前
查看轨道信息
2026-03-31T21:00:00+0800
3天前
查看轨道信息
半长轴 6927.609km 6927.663km
偏心率 0.00018 0.0001634
轨道倾角 97.602° 97.601°
近地点辐角 86.346° 84.507°
升交点赤经 308.969° 305.998°
平近点角 273.797° 152.727°
近地点 548.225km 548.394km
远地点 550.719km 550.658km
周期 95.639分钟 95.640分钟
每日圈数 15.056628 15.056452
详细信息
固有亮度:
5
最大亮度:
2.5
卫星平台:
Starlink V1.0
覆盖范围:
全球
运营商:
太空探索技术公司
运营商所在国:
美国
制造商(研发单位):
太空探索技术公司
制造商所在国:
美国
使用方式:
暂无
卫星简介
Starlink 计划是 SpaceX 推出的全球卫星互联网项目,通过发射低轨道卫星,为全球尤其是偏远地区提供高速、低延迟的互联网服务。自 2019 年起,Starlink 已部署数千颗卫星,旨在缩小全球数字鸿沟,推动互联网普及。该项目还为军事、航空等行业提供通信支持,带来广泛经济效益。
2D轨道图
3D轨道图
轨道高度分析图
轨道倾角分析图
轨道综合分析图
查看轨道综合分析图